Location: Ferchesar
(52.6477°N, 12.4298°E)
Time: 17:26:17
(UTC+01:00)

Tiros 1 - Pass Details

Date: 03 December 2021
Orbit: 629 x 664 km, 48.4° (Epoch: 22 January)

Event Time Altitude Azimuth Distance (km) Brightness Sun altitude
Rises 00:02:00 0° 275° (W) 2,957 - -59.4°
Reaches altitude 10° 00:04:31 10° 266° (W) 2,051 - -59.4°
Maximum altitude 00:08:41 32° 204° (SSW) 1,127 - -59.4°
Drops below altitude 10° 00:12:54 10° 142° (SE) 2,064 - -59.3°
Sets 00:15:26 0° 132° (SE) 2,978 - -59.3°
